Wind_Speed
15 15 16 16 18 19 19 18 17 16 15 13 9 6 6 6 8 10 13 14 15 18 20 22 20 17 18 21 22 23 23 24 27 28 29 31 32 33 34 35 35 36 36 37 38 38 38 38 38 39 40 40 41 41 41 41 41 41 41 41 41 41 41 41 41 41 41 40 40 39 39 38 38 37 36 35 34 33 31 30 28 27 26 25 24
15 15 15 15 15 16 17 16 16 16 16 16 12 8 5 5 6 8 11 13 14 15 17 20 21 20 16 14 16 21 21 22 24 25 27 28 30 32 33 35 35 36 36 37 38 38 38 38 38 39 39 40 40 41 40 40 40 39 39 39 39 39 39 39 39 39 39 38 38 37 37 36 36 35 34 33 32 31 29 28 27 25 24 23 23
13 15 15 14 13 13 14 15 15 16 16 17 17 12 6 4 4 6 8 12 12 13 15 18 20 20 17 13 15 19 20 20 21 22 24 26 28 30 31 33 34 35 35 36 37 37 37 37 37 38 38 38 39 39 39 39 38 38 38 37 37 37 37 37 37 37 36 36 35 35 34 33 33 32 31 30 29 28 27 26 24 23 22 22 21
11 14 15 15 13 12 12 13 14 14 15 17 19 17 11 5 3 4 6 9 11 11 13 16 18 18 17 16 17 18 20 20 20 21 22 23 26 28 29 31 32 33 33 34 35 36 36 36 36 36 37 37 38 38 38 37 37 36 36 36 35 35 35 35 35 34 34 33 33 32 31 31 30 29 29 28 27 26 25 24 23 22 20 19 17
12 13 15 16 14 12 11 12 12 12 14 17 19 19 16 10 4 3 5 6 8 10 11 14 16 17 16 15 16 18 19 19 19 20 20 21 23 26 27 29 30 31 31 32 33 34 34 35 35 35 35 36 36 36 36 36 35 35 34 34 33 33 33 33 33 33 32 32 31 31 30 29 28 27 27 26 25 24 23 22 20 19 18 17 16
16 15 15 16 16 14 12 11 10 11 14 16 17 17 17 15 8 4 4 4 6 8 9 11 13 16 16 14 14 17 17 17 18 18 18 18 21 24 25 27 28 29 29 30 31 32 33 33 33 33 33 34 34 35 35 34 34 33 32 32 32 32 31 31 31 31 31 30 30 29 28 27 25 24 23 23 22 22 21 21 20 19 19 19 18
18 19 19 16 15 15 14 12 10 11 14 14 14 14 15 16 12 6 5 4 4 6 7 9 11 13 14 13 13 15 16 16 16 16 17 17 18 21 24 26 27 28 29 29 30 31 31 32 32 32 32 32 33 33 33 33 32 31 30 30 30 29 29 29 28 28 28 27 27 26 25 24 23 22 22 22 22 22 22 22 22 21 21 20 19
17 19 20 17 13 14 14 13 11 10 12 13 12 12 13 14 13 9 6 5 4 5 5 7 9 10 12 12 12 13 14 15 15 15 15 16 17 19 22 24 26 28 29 29 29 29 30 30 31 31 31 31 31 30 30 30 29 28 28 27 27 27 26 26 25 25 25 24 24 24 23 23 22 22 22 22 22 22 22 22 22 21 20 20 19
18 16 17 16 13 12 14 13 12 11 11 12 11 11 12 12 12 12 8 6 6 5 5 6 7 8 9 10 10 11 12 14 14 13 13 14 16 18 20 22 24 26 28 28 28 28 28 29 29 29 29 28 28 28 27 27 26 26 25 25 24 24 24 24 23 23 23 23 23 22 22 22 22 21 21 21 21 21 21 21 20 20 20 19 18
19 16 15 14 13 12 13 13 13 13 13 12 11 10 10 10 10 12 10 6 7 8 7 7 6 6 7 7 8 8 10 11 13 12 12 13 14 16 18 20 22 24 26 27 27 27 27 26 26 26 26 25 25 25 25 24 24 23 23 23 23 23 23 22 22 22 22 22 22 21 21 21 21 21 21 21 20 20 20 19 19 19 18 18 18
18 17 16 14 14 13 13 13 14 14 15 15 12 10 10 9 8 8 9 7 6 8 9 10 8 4 4 5 5 7 7 8 10 11 11 11 12 14 16 18 20 21 23 24 24 24 24 24 23 23 23 22 22 22 22 22 22 21 21 21 21 21 21 21 21 20 20 20 20 20 20 20 20 21 21 21 20 19 18 18 17 17 17 17 16
17 16 15 15 15 15 16 15 15 15 16 17 16 13 11 11 9 7 6 7 7 7 8 10 11 9 3 2 3 4 4 5 6 9 10 10 10 12 14 16 18 19 20 21 21 21 21 21 21 21 20 20 19 19 19 19 20 20 20 20 20 20 20 20 19 19 18 18 18 18 19 19 20 20 20 19 19 18 17 17 16 16 16 16 16
17 15 15 16 17 18 18 17 16 16 17 18 19 17 15 13 12 9 7 6 6 6 7 8 10 11 9 5 1 0 1 3 4 5 8 9 9 10 13 15 16 17 17 18 19 19 18 18 19 19 19 18 17 17 17 18 18 19 19 19 18 18 18 18 18 18 18 17 17 17 18 18 19 19 18 18 17 16 16 16 16 16 16 15 16
18 17 16 16 17 18 19 19 18 19 19 19 20 21 19 16 15 13 11 9 9 8 7 8 8 9 11 10 7 4 2 1 2 3 5 7 8 9 11 13 15 16 16 16 17 16 16 16 16 16 16 16 16 16 16 17 17 17 17 17 17 16 16 16 16 16 16 16 16 17 17 17 17 17 17 16 16 16 16 16 16 16 16 16 16
20 18 18 18 17 16 17 19 20 20 20 20 20 21 22 20 18 16 14 13 12 11 9 9 9 8 9 11 10 8 6 4 2 3 4 6 8 9 11 12 14 15 15 15 15 15 14 14 14 14 14 14 14 15 15 16 16 16 16 15 15 14 14 14 14 14 14 15 15 16 16 16 16 16 15 15 15 15 16 16 16 17 17 16 16
22 20 20 21 20 18 16 17 20 21 21 21 21 21 23 22 21 19 17 16 14 14 13 12 10 9 9 9 10 11 10 8 6 5 5 6 8 10 11 12 13 14 15 15 15 14 14 13 13 12 12 12 13 13 14 14 14 14 14 14 13 13 13 12 12 12 13 13 14 14 15 15 15 14 14 14 14 15 15 16 16 17 16 15 14
24 23 22 22 23 22 20 19 21 22 23 24 23 22 23 23 23 21 20 19 17 16 15 14 12 10 10 9 9 10 12 12 10 8 8 8 9 11 12 13 14 14 15 15 15 14 13 13 12 12 11 11 11 12 12 12 12 12 12 12 12 12 11 11 11 11 12 12 13 14 14 14 14 14 14 14 14 14 15 15 16 16 15 13 12
25 25 24 24 25 25 24 25 26 27 28 29 27 26 25 24 24 24 22 21 20 19 18 16 14 12 12 11 10 10 12 14 14 12 10 11 11 11 13 15 15 15 15 15 15 14 14 13 13 12 11 11 11 11 11 11 11 10 10 10 10 10 9 9 9 10 10 11 12 13 13 13 13 13 13 13 13 14 14 14 15 14 13 12 11
27 26 26 26 27 27 28 29 30 31 31 31 30 29 28 26 25 25 25 24 23 22 21 20 17 15 14 12 12 12 12 13 16 16 14 13 13 13 14 16 17 17 17 16 16 16 15 15 14 13 12 11 11 11 11 10 10 9 8 8 8 8 8 8 8 9 9 9 10 11 12 12 13 13 13 13 13 13 13 14 14 13 12 10 8
29 28 28 28 28 29 29 29 30 30 31 31 30 29 28 26 25 25 25 25 25 24 23 23 20 18 17 15 14 14 13 13 15 17 18 17 16 16 16 16 18 20 19 18 17 17 17 16 16 15 14 13 12 11 10 10 9 8 8 7 7 7 7 7 7 8 8 8 9 10 11 12 12 12 13 13 13 13 13 13 13 11 9 7 5
29 30 30 30 29 30 30 31 31 31 30 30 30 29 29 28 26 25 25 26 27 26 25 24 23 22 21 19 17 16 15 15 15 16 20 21 20 19 19 18 19 21 21 20 19 19 19 18 18 17 16 14 13 12 11 10 9 8 7 7 6 7 7 7 7 7 7 7 7 8 9 11 12 12 13 13 13 13 13 12 11 8 6 4 2
29 29 30 30 30 30 31 31 32 32 32 32 32 31 30 29 28 28 27 27 28 29 28 26 25 24 24 23 21 19 18 17 16 16 19 22 23 22 21 21 20 21 22 22 21 20 20 20 20 19 18 17 15 14 13 12 10 9 8 7 6 6 7 7 7 7 7 6 6 6 8 10 12 13 13 14 14 14 13 11 9 7 5 4 4
29 29 30 31 31 31 31 32 32 33 33 33 33 32 32 31 31 30 29 29 30 31 31 29 27 27 27 27 25 23 21 19 18 18 18 21 24 24 23 23 23 22 23 24 23 23 23 22 22 21 20 19 17 16 15 13 12 11 10 9 8 7 7 7 7 7 7 6 6 5 7 8 10 12 13 13 14 14 13 11 9 8 6 5 5
31 31 32 33 33 34 34 34 35 36 35 34 33 32 31 32 32 31 32 32 32 32 33 32 31 30 29 29 29 28 26 23 21 21 20 20 23 26 26 26 25 24 25 25 25 25 25 24 24 23 22 21 20 19 17 16 15 14 12 11 10 8 8 8 7 7 7 7 6 6 6 7 9 10 12 12 13 13 12 11 9 8 6 5 4
34 34 35 36 36 37 37 37 38 39 40 40 38 35 33 33 33 32 33 34 33 33 34 34 33 32 31 31 32 32 30 26 24 24 22 21 22 24 27 28 27 27 27 26 26 27 27 27 27 25 24 23 23 22 20 19 18 16 15 14 12 11 10 10 9 9 9 9 8 7 6 6 7 9 10 11 12 12 12 11 9 7 5 5 5
37 38 38 39 39 40 41 41 41 42 42 43 44 43 41 38 36 34 34 35 34 34 36 37 36 35 32 32 33 34 33 30 28 27 26 24 23 23 26 29 29 29 29 28 28 29 29 29 29 28 26 26 25 24 23 22 21 19 18 16 15 14 13 12 11 11 10 10 10 10 9 7 7 8 9 9 10 11 11 11 9 8 7 6 6
41 41 41 42 42 43 44 44 45 46 46 46 46 47 47 46 43 40 39 38 37 37 38 39 40 37 34 33 34 35 35 34 32 30 28 28 26 24 25 29 30 31 31 31 31 31 31 31 31 30 29 28 27 26 25 24 23 22 21 20 18 17 16 15 14 13 13 12 12 12 11 10 9 9 9 10 10 11 12 12 11 9 8 8 7
44 44 44 45 45 45 46 47 47 48 49 50 50 49 49 49 49 48 46 43 41 41 41 41 42 40 37 36 37 37 37 37 35 32 30 30 30 28 27 29 31 32 33 34 33 33 33 34 34 32 31 31 29 28 27 27 26 25 24 23 22 21 19 18 17 16 16 15 15 14 14 13 13 12 11 11 11 12 12 12 12 11 10 9 8
42 43 43 44 44 45 46 47 48 48 49 51 52 52 51 50 51 51 51 50 48 45 44 45 45 44 42 41 40 40 38 39 36 32 30 32 33 33 32 31 31 32 35 37 36 35 36 37 36 34 33 33 31 30 30 29 28 27 26 25 25 24 23 21 20 19 19 18 18 17 16 16 15 15 14 13 13 13 13 13 13 12 12 11 10
36 37 38 39 39 40 41 42 44 45 46 47 49 50 51 50 50 50 51 52 53 52 50 48 47 47 47 46 45 43 40 40 40 35 34 37 37 36 35 34 33 32 34 38 39 38 38 39 39 37 35 35 34 32 32 31 30 29 28 28 27 26 25 24 23 22 21 21 20 20 19 18 18 17 16 15 15 14 14 13 13 13 13 13 12
33 34 35 36 37 38 39 40 41 42 43 44 45 46 47 47 48 48 49 50 52 54 54 54 51 50 51 50 48 46 44 44 45 42 39 39 38 37 38 37 36 34 34 37 40 41 40 41 41 40 39 38 37 35 34 33 32 31 30 30 29 29 28 27 25 24 24 23 23 22 22 21 20 20 19 18 18 17 16 15 15 14 14 14 13
35 36 36 37 38 40 41 42 43 44 45 45 44 44 44 45 46 48 49 50 51 52 53 56 55 54 54 55 53 52 51 50 51 50 47 43 39 39 41 40 37 37 36 37 40 42 43 43 43 42 42 42 41 40 37 36 35 34 33 32 32 31 30 29 28 28 27 26 25 24 24 23 23 22 21 21 20 20 19 18 17 16 16 15 14
38 39 40 40 41 42 43 44 45 46 47 47 46 46 46 46 47 48 49 51 53 53 53 55 56 57 57 58 59 58 57 56 55 54 53 50 46 44 45 42 38 36 37 39 41 42 43 45 47 45 44 44 44 43 41 39 38 37 35 34 34 33 32 31 31 31 30 29 28 27 26 25 25 24 24 23 23 22 21 21 20 19 18 17 16
41 41 42 43 44 45 45 45 46 46 47 48 48 49 49 50 50 50 50 51 53 55 55 56 57 57 58 60 61 62 62 62 61 58 56 54 53 50 48 46 41 36 35 39 44 45 44 45 48 48 46 46 46 45 43 42 40 39 38 37 36 36 34 33 33 33 32 32 31 30 29 28 27 26 26 26 25 24 23 23 22 21 20 19 18
43 44 45 45 46 46 46 46 46 46 47 47 49 50 51 52 52 52 52 53 54 55 56 57 58 59 60 60 62 63 65 66 67 65 61 58 58 56 53 50 46 41 37 38 43 47 47 46 48 50 49 48 49 48 46 44 43 42 41 39 39 38 37 36 35 34 34 34 33 32 31 30 29 28 28 28 27 26 25 24 24 23 22 22 21
45 46 47 48 48 49 49 49 49 49 49 49 50 51 52 53 53 54 54 54 55 56 57 57 58 59 61 62 63 63 65 68 70 70 68 65 63 62 60 58 55 52 49 46 45 48 49 47 47 50 51 50 51 50 49 48 46 45 44 43 42 41 40 39 37 36 35 35 34 34 32 32 31 30 30 30 29 28 27 26 25 24 24 23 23
49 49 50 51 52 53 53 52 52 51 51 51 52 52 53 54 55 56 55 55 55 55 56 56 57 58 60 62 63 64 65 67 70 72 73 72 69 67 66 65 64 62 61 57 54 54 54 50 47 48 50 51 52 52 51 51 49 48 48 46 45 44 43 42 40 38 37 36 36 35 34 33 32 32 31 31 30 29 28 27 26 25 25 24 24
53 53 54 54 54 55 54 54 53 53 53 53 54 54 55 55 56 55 55 54 53 54 54 55 55 56 58 60 62 63 65 67 69 71 74 76 75 73 71 70 69 68 66 64 61 60 59 55 50 48 49 51 52 52 52 52 51 50 50 49 48 47 46 45 43 40 38 38 38 38 37 35 34 33 33 32 31 30 29 28 27 26 26 25 25
56 55 55 56 56 55 55 55 55 55 56 56 56 56 56 55 55 55 54 53 53 52 53 53 54 55 56 58 60 61 63 66 69 71 73 76 78 79 77 74 73 71 70 67 65 64 62 60 55 50 49 51 52 52 52 52 52 52 52 51 49 48 47 47 46 43 40 40 40 40 39 37 35 35 34 33 33 31 30 30 29 28 27 27 26
56 56 57 57 57 57 57 57 58 58 59 58 58 57 56 55 54 54 54 53 53 52 52 52 53 53 55 56 58 59 61 64 67 70 73 74 77 81 82 80 77 75 73 71 69 67 66 64 60 55 51 50 52 53 52 52 54 54 53 52 50 49 48 48 47 46 44 43 43 42 40 38 37 37 36 36 35 34 32 32 31 30 30 29 29
58 58 59 59 59 60 60 60 61 61 60 60 58 57 56 54 53 52 52 52 52 52 52 52 52 53 54 55 56 58 60 62 65 68 71 74 76 79 83 84 82 79 77 75 72 71 69 67 65 61 56 53 53 54 53 53 55 55 53 51 52 51 49 49 49 48 48 47 45 44 42 40 39 39 39 38 37 35 34 33 33 32 32 32 31
61 62 62 62 62 62 62 62 62 61 60 59 57 56 54 52 51 51 51 51 51 51 52 52 52 52 53 54 55 57 59 61 63 66 69 73 75 77 81 84 85 83 81 79 76 74 73 71 69 66 61 57 56 55 55 54 55 55 53 52 53 51 49 49 50 49 49 49 48 47 45 44 43 42 41 40 38 37 36 35 35 34 34 33 32
64 64 64 64 63 62 62 61 61 59 58 57 55 54 52 51 51 50 51 51 51 51 51 52 52 52 52 53 54 56 58 60 62 65 67 70 74 77 79 82 86 87 85 82 80 78 76 73 72 70 66 63 61 58 57 56 55 54 54 53 52 50 49 49 50 49 47 47 48 48 47 46 45 44 43 42 40 39 38 37 37 36 35 34 33
65 64 63 62 61 60 59 59 59 58 57 56 54 53 52 52 51 51 51 51 51 50 50 50 51 52 52 52 53 55 57 59 60 63 66 69 71 75 78 80 83 87 89 86 83 81 79 76 75 73 70 68 66 63 60 59 57 54 53 51 51 51 49 49 50 49 46 45 45 46 47 46 46 46 45 42 40 40 40 39 38 37 36 34 33
62 61 60 59 59 58 58 58 58 58 58 57 55 54 53 52 52 51 51 52 52 52 51 50 50 51 51 52 52 53 55 57 59 61 64 67 70 72 76 79 81 84 89 90 88 85 82 80 77 76 74 73 71 67 64 61 59 55 52 51 52 51 50 50 50 49 46 44 44 45 46 46 46 46 45 42 41 41 41 40 39 38 36 35 34
59 59 59 59 59 59 59 59 59 60 59 58 56 55 54 53 52 51 52 52 52 53 53 52 51 51 51 51 51 52 54 55 57 59 61 64 68 70 73 77 80 82 86 91 92 89 86 83 80 79 78 76 74 71 68 64 60 56 53 52 51 50 50 50 50 49 47 46 44 44 46 46 45 45 44 42 41 42 41 41 39 38 37 36 36
59 60 60 61 61 61 60 60 60 61 61 59 57 56 55 53 52 52 52 53 53 54 54 54 53 52 51 51 51 51 53 53 55 56 58 61 64 68 71 75 78 81 84 88 93 94 91 87 84 82 81 78 76 74 71 66 63 60 56 53 50 49 50 51 52 51 50 48 45 45 47 47 45 43 43 42 41 42 42 41 40 39 38 38 38
61 61 62 62 63 62 62 61 61 61 62 60 58 56 55 54 53 52 53 53 54 54 54 54 54 53 52 52 51 51 52 52 53 54 55 58 61 65 68 72 76 80 83 85 90 94 95 92 88 86 83 80 78 77 74 69 66 63 59 54 51 50 50 52 53 54 52 50 47 45 46 47 45 43 42 41 40 41 42 41 40 39 39 39 40
63 63 63 64 64 63 63 62 62 61 62 61 59 56 55 54 53 53 53 54 54 54 54 54 53 53 53 52 52 52 51 52 53 53 53 55 58 62 66 70 74 78 82 84 86 90 94 95 93 90 87 82 79 78 76 72 69 66 61 56 54 52 51 50 52 55 54 50 46 44 44 46 46 44 42 40 39 41 42 41 40 40 41 41 41
64 64 64 65 65 64 63 62 62 61 61 60 59 57 56 56 55 55 54 54 54 54 54 53 53 53 53 53 52 52 51 51 51 52 53 54 56 60 63 67 71 75 80 83 84 86 90 93 95 95 91 86 81 79 78 75 72 68 63 60 58 55 51 49 51 54 53 49 46 45 45 46 47 44 40 38 39 41 42 41 41 42 42 41 40
63 64 64 64 64 64 62 61 61 60 59 60 60 59 58 57 56 55 54 54 54 55 54 53 53 53 53 53 53 52 51 51 51 51 53 54 55 58 62 65 68 73 78 80 81 83 86 90 94 96 95 91 85 81 78 77 75 70 65 63 61 56 52 50 51 52 52 51 49 46 45 45 45 42 38 37 39 41 42 41 41 42 41 40 39
Wind_Direction
4 4 8 11 11 9 9 10 8 7 5 358 339 328 355 8 8 11 14 14 17 29 38 41 42 43 35 29 34 43 48 55 60 65 70 75 78 81 84 86 88 90 91 93 95 96 97 98 99 100 100 100 100 100 100 100 100 100 100 100 101 102 102 103 104 105 105 106 107 108 108 108 108 108 108 107 107 106 106 107 107 107 107 107 107
355 356 360 2 3 4 4 6 7 8 10 11 1 339 337 360 4 3 5 11 18 24 31 36 39 48 48 28 32 47 51 55 60 64 68 74 79 82 85 88 90 92 93 94 96 97 98 99 99 99 99 99 99 100 100 100 100 100 101 101 102 103 103 104 105 105 106 107 107 108 108 108 108 107 107 107 107 107 108 108 107 107 106 106 106
349 352 354 352 351 354 357 360 2 5 10 15 13 2 342 330 349 359 360 7 19 26 27 31 35 44 55 50 45 51 54 57 60 63 68 74 79 82 85 88 90 92 94 95 96 97 98 98 99 99 99 99 99 100 100 100 100 101 101 102 102 102 103 103 104 104 104 105 105 105 105 105 105 105 106 106 106 106 106 105 105 104 104 104 105
341 344 345 343 343 345 349 353 353 358 8 14 16 14 4 337 316 349 359 1 14 28 28 28 31 37 48 52 50 54 57 59 61 64 71 77 80 83 86 88 91 92 94 96 97 98 99 100 100 100 100 100 100 100 101 101 101 101 101 101 101 101 101 101 101 101 101 101 100 100 100 100 101 101 102 102 102 103 103 102 103 102 103 104 104
321 330 335 336 335 338 341 345 347 345 352 3 9 13 12 2 325 320 354 355 2 21 31 29 30 33 42 49 49 54 59 61 65 68 73 79 83 87 89 91 93 94 96 97 99 100 101 101 101 101 101 101 101 101 101 101 101 101 101 100 100 100 99 99 99 98 98 98 98 97 97 97 98 98 99 100 101 102 102 102 102 101 100 98 99
300 303 314 324 326 328 332 335 338 334 333 345 357 2 7 9 356 308 322 347 350 8 28 34 33 33 38 48 54 56 59 63 67 71 75 79 87 91 94 96 97 98 99 100 101 102 102 102 102 102 102 102 102 102 102 102 101 100 100 99 99 98 98 98 97 97 97 97 97 97 97 97 97 97 97 98 98 98 98 98 97 97 95 94 94
292 291 294 304 314 317 320 321 320 324 328 336 350 354 357 5 6 335 291 312 337 348 12 30 37 36 34 43 56 60 62 65 68 73 78 83 91 97 99 101 102 103 104 104 104 104 104 104 104 103 102 102 101 101 101 101 100 99 98 98 98 98 98 97 98 97 98 98 99 98 98 97 96 95 94 93 94 95 96 96 96 97 97 96 95
291 289 289 290 297 302 306 309 310 313 320 330 346 354 351 357 6 358 308 283 301 317 341 13 36 42 34 34 51 62 65 68 70 74 80 87 95 102 104 105 107 107 108 107 107 106 106 105 105 104 103 102 101 100 100 99 99 98 98 98 97 98 98 98 98 98 98 98 99 99 99 98 97 95 94 93 94 97 98 99 99 100 99 97 95
293 289 287 284 280 284 293 300 304 307 311 319 334 350 352 352 2 5 341 285 273 288 309 341 18 44 41 31 43 61 69 72 75 78 83 91 99 105 108 109 110 111 111 111 110 109 108 107 106 106 105 104 102 101 100 99 98 98 98 97 98 97 97 98 98 99 99 100 100 100 100 100 99 98 97 97 99 100 101 101 101 100 99 97 95
294 290 282 274 270 275 285 292 298 303 304 308 319 336 345 350 360 5 360 321 277 274 281 301 339 28 48 37 42 61 72 77 81 85 89 96 104 109 112 113 114 114 115 114 114 113 111 110 109 107 106 105 104 103 102 101 99 99 98 99 98 98 98 98 99 99 100 101 101 100 100 101 101 102 103 104 104 104 103 103 103 102 100 98 97
290 289 283 274 270 274 278 284 290 295 298 300 307 318 327 336 350 0 5 358 321 291 280 280 294 330 37 45 50 65 73 77 85 92 96 103 111 116 118 119 120 119 119 119 118 116 115 113 112 109 107 106 104 103 102 102 101 101 101 101 101 101 101 101 101 101 101 101 101 101 102 103 105 107 108 108 107 107 106 106 105 104 102 100 98
281 280 281 280 276 274 275 275 277 284 293 297 299 303 308 314 325 337 348 355 355 339 312 291 284 288 307 36 63 75 75 76 90 99 102 110 119 125 127 128 129 127 125 124 122 120 118 116 114 112 110 108 106 105 103 103 103 104 104 104 104 103 103 104 103 103 102 103 103 104 106 108 109 110 111 111 110 109 109 108 106 104 103 100 97
271 268 268 276 280 279 279 279 278 279 286 292 294 294 295 298 304 310 313 317 330 345 341 319 297 285 279 275 265 188 98 84 103 115 115 120 129 136 139 139 139 137 134 131 128 125 122 119 118 116 115 112 110 108 107 107 107 107 107 107 106 105 104 104 104 104 104 105 106 108 111 113 114 113 113 113 112 111 111 109 107 105 103 100 98
262 260 257 263 278 284 285 288 287 282 279 281 284 286 287 288 290 294 297 300 303 313 327 329 320 302 284 274 265 254 243 199 133 148 144 140 144 148 150 151 150 148 145 141 136 132 129 126 124 121 119 116 114 112 111 111 111 110 109 108 107 106 106 105 105 105 106 107 109 113 116 118 118 117 116 115 115 114 113 111 109 108 105 102 100
255 255 254 254 262 275 282 285 283 280 276 272 273 277 281 282 283 285 288 291 294 296 303 314 322 319 301 283 269 257 244 239 223 202 187 168 164 164 164 164 162 161 158 153 148 143 139 135 131 127 121 118 117 116 116 114 113 112 110 109 108 107 106 107 108 109 111 112 113 117 121 122 121 120 120 119 118 117 115 114 112 111 109 106 103
256 255 255 254 252 256 267 272 271 273 274 270 269 273 276 278 279 279 280 283 286 288 289 297 306 311 306 296 277 260 247 239 236 230 214 198 187 179 176 176 176 174 172 167 161 156 152 147 142 135 128 123 120 120 120 119 115 113 112 110 109 108 107 107 108 111 115 118 120 122 124 125 125 124 124 123 122 120 119 118 117 115 114 112 107
258 256 255 255 252 250 253 258 258 260 264 265 267 270 273 275 277 276 275 275 278 282 282 284 290 294 294 296 289 269 255 247 242 238 225 214 207 196 189 187 188 187 185 181 176 169 165 160 155 148 139 133 128 127 126 124 121 117 116 115 113 113 112 111 110 111 115 120 124 127 128 128 128 128 128 128 126 124 124 123 123 123 122 120 115
257 257 255 254 252 250 250 251 253 255 259 264 267 268 269 272 274 274 273 270 271 275 277 276 276 279 282 287 293 285 268 255 247 241 231 222 218 211 202 197 197 197 195 191 188 183 178 173 168 163 156 148 141 139 137 135 131 127 124 122 120 119 118 117 116 116 118 122 127 131 133 132 132 133 133 133 133 131 131 132 132 133 132 128 121
256 257 256 254 252 250 251 252 254 257 260 264 267 268 268 269 271 272 271 268 267 269 272 273 271 271 273 275 283 288 282 265 250 242 237 229 223 220 215 208 204 203 202 200 197 194 190 186 181 176 172 166 159 154 152 150 146 142 137 133 130 127 126 124 123 123 124 127 131 135 139 139 139 140 140 142 141 140 140 141 142 140 138 133 123
256 256 256 256 253 251 252 253 256 259 261 264 266 267 267 267 268 269 269 268 266 265 266 269 268 267 269 270 274 281 284 278 261 246 238 234 228 224 223 219 213 208 206 205 203 202 200 196 192 188 184 181 176 170 166 165 162 157 152 146 141 137 134 132 129 128 129 133 137 140 144 147 148 150 151 152 151 150 150 150 150 149 147 142 131
256 257 258 258 257 255 254 254 255 257 260 263 264 265 266 266 266 266 266 265 264 263 263 264 266 266 267 269 270 273 277 278 273 256 241 235 231 226 225 225 221 215 211 210 208 207 206 204 201 197 194 192 188 184 181 179 178 175 170 163 155 149 144 141 139 137 137 139 144 150 153 156 158 160 162 163 163 163 162 162 163 166 170 176 188
257 256 257 259 259 258 257 257 257 259 260 262 263 264 265 265 265 264 262 259 258 260 260 260 262 265 266 267 267 268 270 272 273 266 249 239 235 231 227 227 226 222 217 215 214 213 211 209 207 204 202 200 197 195 193 192 192 190 188 184 174 164 157 152 149 149 149 148 152 161 166 167 168 169 171 174 176 175 176 179 184 196 210 221 222
256 255 254 254 255 256 256 255 256 258 260 261 261 262 262 262 262 262 261 259 255 255 257 258 260 262 263 265 265 265 266 267 268 268 260 246 238 235 231 228 228 227 223 221 219 217 216 214 212 210 208 206 204 203 202 201 201 201 201 199 194 185 174 168 164 163 163 160 161 168 177 179 178 178 180 183 187 188 191 197 206 216 224 224 219
255 255 254 253 253 254 254 253 253 254 257 258 259 258 258 259 258 258 257 257 255 254 255 256 257 257 258 261 262 262 264 265 265 265 264 255 244 237 234 231 229 228 228 226 223 221 219 217 216 215 213 212 210 209 209 208 208 209 209 209 207 204 195 188 183 180 179 177 174 174 178 184 187 188 189 193 197 201 205 210 216 218 219 218 220
256 256 257 257 256 256 256 256 255 255 256 259 260 259 257 256 255 256 256 255 254 254 255 254 253 252 253 255 258 260 261 261 262 262 262 260 253 243 238 235 231 229 230 229 228 226 224 222 220 218 217 216 215 214 213 213 214 214 214 215 215 214 211 207 202 198 194 191 189 187 183 184 189 193 197 202 207 211 212 213 214 216 218 223 232
257 257 258 259 259 260 260 261 261 261 261 261 262 264 264 262 258 254 254 254 254 253 253 253 252 251 250 251 254 257 258 258 258 259 259 260 260 253 245 240 236 233 232 231 231 230 228 227 225 221 220 220 220 219 218 217 218 218 219 219 219 219 219 218 216 213 210 206 204 201 198 193 191 195 199 204 211 214 214 214 216 219 222 225 232
260 261 261 262 263 263 263 263 263 264 265 265 264 264 266 267 266 261 255 253 252 252 253 254 254 252 250 249 250 253 257 259 257 254 255 258 259 257 251 245 240 237 234 232 231 231 230 229 228 225 223 223 222 222 222 222 221 222 222 222 222 222 222 223 223 223 222 219 217 214 211 208 205 202 202 205 210 214 216 218 220 222 224 223 226
264 265 265 266 266 266 266 265 264 264 265 266 266 265 265 265 267 267 264 259 254 251 251 252 253 251 247 245 247 249 252 257 256 253 253 257 258 257 254 251 246 241 237 234 231 230 230 230 230 228 226 225 224 223 224 225 225 225 225 225 226 225 225 225 226 228 228 227 226 224 222 220 218 216 213 211 212 214 216 218 220 222 225 227 230
266 266 267 268 268 268 268 267 267 266 265 265 266 267 267 265 265 265 265 264 261 255 250 248 250 250 247 244 245 247 248 251 252 251 251 252 253 254 252 251 249 244 240 237 234 231 229 230 230 229 228 227 226 224 224 225 226 227 228 229 229 228 228 228 228 230 232 233 233 232 230 228 227 226 225 222 220 219 220 221 223 225 227 231 235
267 268 268 268 269 269 269 269 269 268 267 266 266 266 267 268 267 266 265 263 263 261 257 251 246 247 247 245 243 242 242 244 246 245 245 244 246 250 252 251 249 248 244 241 238 234 231 230 230 229 229 229 228 227 225 225 226 227 229 231 232 232 232 231 231 233 234 235 236 237 237 235 234 233 232 232 230 228 227 227 229 232 234 237 240
271 270 270 271 271 271 271 271 271 270 269 268 268 267 267 268 268 268 267 265 262 261 260 257 251 245 243 243 242 239 235 236 239 240 240 240 242 247 251 252 251 249 248 246 242 238 233 232 231 229 229 231 231 231 230 229 229 228 228 231 234 234 235 234 234 234 236 237 238 239 241 240 239 238 236 236 236 235 234 234 234 237 241 245 247
273 272 271 271 272 273 273 273 272 271 271 269 268 268 268 268 269 269 267 266 264 261 259 258 256 250 244 240 240 239 235 233 235 238 238 237 236 238 242 246 248 248 248 248 246 240 235 234 233 229 228 230 232 233 234 234 234 233 230 231 233 235 236 236 235 235 236 237 238 239 241 242 242 242 240 240 240 239 239 239 239 241 243 247 249
274 273 273 273 273 274 274 275 274 273 271 269 268 269 270 271 272 271 269 266 264 262 259 257 256 253 249 244 240 237 236 235 236 237 238 238 236 235 235 237 240 245 247 249 248 243 236 234 234 232 229 229 231 233 234 235 237 237 234 232 233 235 236 237 237 237 237 237 239 239 240 242 244 244 244 244 243 242 242 242 242 243 244 247 248
277 276 277 277 277 277 277 277 276 275 273 270 269 269 271 273 274 273 271 268 264 262 260 258 255 253 251 248 244 239 236 235 236 236 237 238 237 236 235 234 233 237 244 249 251 247 238 233 233 233 231 229 230 231 231 233 235 236 236 235 235 235 236 236 238 239 239 238 239 240 241 242 243 245 245 246 245 245 244 243 243 243 245 247 249
280 280 280 280 279 280 280 279 278 277 275 273 271 271 272 274 275 274 273 271 268 264 260 258 256 253 251 249 247 243 238 235 235 235 235 235 236 235 234 231 228 229 233 241 249 248 242 234 232 233 233 231 231 231 230 230 231 234 235 235 236 236 236 237 238 239 240 240 241 241 242 243 243 244 245 246 246 246 245 245 245 244 245 247 249
284 284 284 283 283 284 284 283 282 280 278 276 275 274 275 275 276 275 274 272 269 266 262 258 255 253 251 249 247 245 242 238 235 234 233 233 233 234 233 230 227 226 228 231 239 244 242 236 232 232 233 232 232 233 232 231 231 232 234 235 236 237 237 237 237 237 239 241 242 243 244 244 245 244 245 246 246 247 247 247 247 246 246 248 250
290 288 287 287 287 287 286 285 284 283 281 280 279 279 279 279 278 277 275 272 269 266 263 260 257 254 252 250 247 244 243 241 238 234 232 232 232 232 231 230 229 229 231 232 234 237 239 236 232 232 233 233 233 233 234 234 233 234 235 236 236 237 238 237 236 236 237 240 242 244 245 246 246 246 246 246 247 247 248 248 249 249 250 251 252
293 292 290 289 288 288 287 287 286 285 284 284 284 283 282 282 281 279 276 272 269 266 264 261 258 255 252 250 248 245 242 241 240 237 234 231 231 230 230 230 230 230 232 233 233 234 236 236 232 230 232 233 233 233 234 235 235 235 236 236 236 236 237 238 237 236 236 239 241 242 243 245 247 248 248 248 248 248 249 249 250 250 251 253 255
294 294 293 292 291 290 290 289 289 288 289 288 287 286 285 284 282 280 277 274 271 268 265 262 259 257 254 251 249 247 244 241 240 239 236 233 231 229 229 229 229 229 230 232 232 232 234 235 232 229 229 232 233 233 233 234 235 236 236 236 236 236 237 238 239 238 237 238 240 240 241 244 247 248 248 249 249 249 250 250 251 251 252 254 257
295 295 295 294 294 293 293 292 292 291 291 290 289 288 286 285 283 281 279 277 274 270 267 264 261 258 255 253 250 247 245 243 240 238 237 235 232 230 229 228 227 227 228 229 230 230 231 233 233 229 227 230 233 234 232 232 235 236 235 235 236 237 237 238 239 240 239 239 239 240 240 243 246 248 249 248 248 248 250 250 251 253 255 256 259
296 296 297 297 296 295 294 294 293 292 291 290 289 288 286 285 283 281 279 278 276 273 270 266 262 259 256 254 251 249 246 244 242 239 237 236 234 232 229 228 227 226 227 228 229 229 229 230 231 230 227 227 231 234 233 231 233 234 234 234 235 236 236 237 239 240 241 240 240 240 241 243 246 248 248 247 247 248 249 250 252 255 257 259 259
298 298 298 297 296 295 294 293 293 292 291 290 289 288 286 284 282 281 280 279 277 274 272 268 265 261 257 254 252 250 247 244 242 241 238 236 234 233 231 229 227 226 226 226 227 228 228 228 230 230 228 226 228 232 233 232 231 232 232 233 234 235 235 236 238 239 240 241 241 241 242 244 246 247 247 246 245 246 248 250 253 256 258 259 259
298 298 297 296 295 294 293 293 292 291 290 289 289 287 286 284 282 281 280 280 278 275 273 270 267 263 260 256 253 250 248 245 243 241 239 237 235 233 232 230 228 227 226 226 226 227 227 227 228 229 229 228 227 228 231 233 231 230 231 232 233 234 234 235 238 239 240 241 242 242 243 244 246 246 245 244 244 246 248 251 253 255 257 258 258
297 296 295 295 294 294 293 293 292 291 290 289 288 287 285 284 282 282 281 280 279 277 274 271 268 265 262 258 254 251 248 246 243 241 239 238 236 234 233 231 229 227 226 226 225 226 227 227 227 227 228 228 227 226 228 231 232 230 230 231 232 233 234 235 237 239 239 240 243 244 243 243 244 245 245 244 244 246 249 251 253 254 254 255 256
296 296 296 295 295 295 294 294 293 292 291 290 289 287 286 284 283 282 281 281 280 278 276 273 269 266 263 260 256 253 250 247 244 241 239 238 236 234 233 232 230 228 227 226 225 225 225 226 227 227 226 227 228 227 226 228 230 231 230 230 231 232 233 235 237 238 239 240 242 244 244 243 243 244 245 245 246 248 249 250 251 252 253 254 255
297 297 297 297 296 296 295 295 294 293 292 291 289 288 286 285 283 283 282 281 280 279 277 274 271 268 264 261 258 254 251 248 245 241 239 238 236 235 233 233 231 229 227 226 225 225 224 225 226 227 226 226 227 228 227 226 228 229 230 230 230 231 233 234 236 238 239 239 241 243 244 242 242 244 245 245 246 247 248 249 250 250 252 253 255
299 299 299 298 297 296 295 294 293 293 292 291 290 288 287 285 284 283 282 281 280 278 276 274 272 269 266 262 259 256 252 249 246 242 239 237 236 235 233 232 232 230 228 226 225 225 224 224 226 227 227 226 226 228 227 226 226 227 228 229 230 231 233 234 236 238 239 238 238 240 242 242 240 242 244 244 244 246 247 248 249 250 251 253 256
299 299 298 297 297 296 295 294 293 292 291 291 290 288 287 285 284 282 281 280 278 276 274 273 271 269 266 263 259 256 253 250 247 244 241 238 236 235 234 232 231 231 229 227 225 225 224 224 225 227 227 226 226 228 228 226 226 227 227 228 229 230 232 233 235 237 238 237 236 238 241 242 240 240 241 242 243 245 247 248 249 251 252 255 256
299 298 298 297 296 296 295 294 293 292 291 290 289 288 287 285 284 282 281 280 278 276 273 271 269 267 265 263 260 257 254 251 248 245 242 238 236 235 233 232 231 230 230 228 225 224 224 224 224 226 227 227 226 227 228 226 226 226 227 228 228 229 230 232 233 235 237 237 235 236 240 242 241 240 240 241 244 247 249 250 252 253 254 256 257
298 298 298 297 296 295 294 293 292 291 291 290 289 288 287 286 284 283 281 279 278 276 273 271 269 267 265 262 260 257 254 251 248 245 242 239 236 234 233 232 231 230 230 229 226 224 224 224 224 225 227 227 227 227 228 227 226 225 226 227 228 229 229 231 233 234 235 237 236 235 238 241 241 240 240 242 245 249 251 252 253 254 255 256 257
298 297 296 296 295 294 293 292 291 291 290 290 289 288 287 285 284 282 281 279 277 275 273 271 269 267 265 262 260 257 255 252 249 246 243 240 237 235 233 232 231 230 229 229 227 225 223 223 224 224 225 227 227 227 227 228 227 224 224 227 228 228 228 230 233 234 234 236 237 235 236 240 242 240 240 242 246 249 251 252 252 253 254 255 256
Height
10990 10989 10988 10987 10986 10985 10984 10983 10983 10982 10981 10981 10982 10982 10982 10982 10981 10980 10979 10977 10975 10973 10973 10973 10972 10972 10970 10968 10966 10963 10959 10956 10954 10952 10951 10949 10947 10945 10943 10942 10941 10941 10940 10940 10939 10939 10940 10941 10942 10942 10942 10942 10941 10941 10942 10943 10944 10944 10944 10945 10945 10945 10946 10946 10946 10946 10947 10948 10949 10949 10950 10950 10951 10952 10952 10953 10954 10955 10956 10957 10959 10960 10961 10961 10962
10990 10989 10989 10988 10987 10986 10985 10983 10983 10982 10982 10981 10981 10981 10982 10982 10981 10981 10979 10978 10976 10973 10972 10972 10972 10971 10971 10971 10970 10966 10962 10959 10957 10955 10954 10952 10950 10949 10947 10946 10945 10945 10945 10944 10943 10943 10944 10945 10946 10946 10946 10946 10946 10945 10946 10947 10948 10948 10949 10950 10950 10950 10951 10951 10951 10951 10951 10952 10953 10953 10954 10954 10955 10955 10956 10957 10957 10958 10959 10960 10961 10962 10963 10964 10964
10990 10989 10989 10988 10987 10986 10985 10984 10983 10982 10982 10981 10981 10980 10981 10981 10981 10981 10980 10978 10977 10974 10972 10972 10973 10972 10972 10973 10971 10968 10964 10962 10959 10958 10956 10955 10953 10952 10951 10950 10949 10949 10949 10948 10948 10948 10948 10949 10950 10950 10950 10950 10949 10949 10950 10951 10952 10953 10953 10954 10955 10955 10955 10955 10955 10956 10956 10957 10957 10958 10958 10958 10959 10959 10960 10960 10961 10962 10962 10963 10964 10965 10965 10966 10966
10991 10990 10989 10988 10987 10986 10985 10984 10983 10982 10982 10981 10981 10980 10980 10980 10980 10980 10980 10978 10977 10976 10974 10973 10973 10973 10972 10971 10971 10968 10966 10964 10962 10960 10959 10957 10956 10954 10953 10953 10952 10952 10952 10952 10952 10952 10952 10953 10954 10954 10954 10954 10953 10953 10954 10955 10956 10957 10958 10958 10959 10960 10960 10960 10960 10960 10960 10961 10961 10961 10962 10962 10962 10963 10963 10963 10964 10964 10965 10966 10966 10967 10967 10968 10968
10991 10990 10988 10988 10987 10986 10985 10984 10983 10982 10982 10982 10981 10980 10979 10979 10979 10980 10979 10979 10978 10977 10976 10975 10973 10973 10972 10970 10970 10968 10967 10965 10964 10963 10962 10961 10959 10958 10957 10956 10955 10955 10956 10956 10956 10956 10956 10956 10957 10958 10958 10958 10957 10957 10958 10959 10960 10961 10962 10962 10963 10963 10964 10964 10964 10964 10964 10964 10964 10965 10965 10965 10966 10966 10966 10966 10966 10966 10967 10967 10968 10968 10969 10969 10969
10991 10989 10988 10987 10986 10985 10984 10984 10983 10982 10982 10981 10981 10980 10979 10979 10979 10979 10979 10979 10978 10978 10978 10976 10975 10974 10973 10971 10970 10969 10968 10967 10966 10965 10965 10964 10963 10961 10960 10959 10959 10959 10959 10959 10960 10959 10959 10960 10961 10962 10962 10962 10962 10961 10962 10962 10963 10965 10965 10966 10966 10967 10967 10967 10967 10967 10967 10967 10967 10967 10967 10968 10968 10968 10968 10968 10968 10968 10969 10969 10969 10970 10970 10970 10971
10990 10988 10987 10986 10985 10984 10983 10983 10982 10982 10981 10981 10980 10980 10979 10978 10978 10978 10978 10978 10979 10978 10978 10977 10976 10975 10974 10973 10971 10969 10968 10968 10967 10967 10966 10966 10966 10965 10964 10963 10962 10962 10962 10963 10963 10963 10963 10963 10964 10965 10965 10966 10965 10965 10966 10966 10967 10968 10969 10969 10969 10969 10970 10970 10970 10969 10969 10969 10969 10969 10970 10970 10970 10970 10971 10970 10971 10971 10971 10971 10971 10972 10972 10972 10972
10989 10987 10986 10985 10984 10983 10982 10982 10981 10981 10981 10980 10980 10979 10979 10978 10978 10977 10977 10978 10978 10978 10978 10978 10977 10976 10975 10974 10972 10971 10970 10969 10968 10968 10968 10968 10968 10968 10967 10966 10965 10965 10965 10966 10966 10967 10967 10967 10967 10968 10968 10968 10969 10969 10969 10969 10970 10970 10971 10972 10972 10972 10972 10972 10972 10972 10972 10972 10972 10972 10972 10972 10972 10972 10972 10972 10973 10973 10973 10973 10973 10973 10973 10974 10974
10988 10986 10984 10984 10983 10983 10982 10981 10981 10980 10980 10980 10979 10979 10978 10978 10977 10977 10976 10976 10977 10977 10977 10977 10977 10976 10975 10974 10974 10972 10971 10970 10969 10969 10969 10969 10970 10969 10969 10969 10968 10968 10968 10968 10968 10969 10969 10970 10970 10970 10970 10971 10971 10971 10972 10972 10973 10973 10974 10974 10974 10974 10974 10975 10975 10974 10974 10974 10974 10974 10974 10974 10974 10974 10974 10974 10974 10974 10974 10975 10975 10975 10975 10975 10975
10985 10985 10983 10982 10982 10982 10982 10981 10980 10980 10979 10979 10979 10978 10978 10977 10977 10976 10976 10976 10976 10976 10976 10977 10977 10976 10976 10975 10975 10974 10973 10972 10971 10971 10971 10971 10971 10971 10971 10971 10971 10970 10970 10970 10970 10971 10971 10972 10972 10972 10973 10973 10973 10973 10974 10974 10975 10975 10976 10976 10976 10976 10976 10977 10977 10977 10977 10977 10977 10977 10976 10976 10976 10976 10975 10975 10976 10976 10976 10976 10976 10976 10976 10976 10977
10984 10983 10981 10981 10981 10981 10981 10980 10979 10979 10978 10978 10978 10978 10977 10977 10977 10976 10975 10975 10975 10975 10975 10975 10976 10976 10976 10975 10975 10974 10974 10974 10973 10972 10972 10972 10972 10972 10972 10973 10973 10973 10972 10972 10972 10972 10973 10973 10973 10974 10974 10975 10975 10976 10976 10976 10976 10977 10978 10978 10978 10978 10978 10978 10978 10979 10979 10979 10979 10979 10979 10978 10978 10978 10977 10977 10977 10977 10978 10978 10978 10978 10978 10978 10978
10983 10982 10980 10979 10979 10978 10978 10978 10978 10978 10977 10976 10977 10977 10977 10976 10976 10976 10975 10975 10975 10974 10974 10974 10974 10975 10976 10975 10975 10975 10975 10974 10974 10974 10973 10973 10974 10974 10974 10974 10974 10975 10974 10974 10974 10974 10974 10974 10975 10975 10976 10977 10977 10978 10978 10978 10978 10979 10979 10980 10980 10980 10980 10980 10980 10980 10981 10981 10981 10981 10981 10981 10980 10980 10979 10979 10979 10979 10979 10979 10979 10980 10980 10980 10980
10981 10981 10979 10977 10976 10976 10976 10976 10976 10976 10975 10975 10975 10975 10976 10976 10976 10975 10975 10975 10974 10974 10974 10973 10973 10974 10974 10975 10975 10975 10975 10975 10975 10975 10974 10974 10975 10975 10975 10975 10976 10976 10976 10976 10975 10975 10976 10976 10976 10976 10977 10978 10978 10979 10979 10979 10979 10980 10980 10981 10981 10981 10981 10981 10981 10982 10982 10982 10982 10982 10983 10982 10982 10982 10982 10981 10981 10981 10981 10981 10981 10981 10981 10981 10982
10980 10979 10977 10976 10975 10974 10974 10975 10974 10973 10973 10974 10973 10973 10974 10975 10975 10975 10975 10974 10974 10974 10973 10973 10972 10972 10973 10974 10974 10975 10975 10975 10975 10975 10975 10975 10975 10976 10976 10976 10977 10977 10977 10977 10977 10977 10977 10978 10978 10978 10978 10979 10979 10980 10980 10980 10981 10981 10982 10982 10982 10982 10982 10983 10983 10983 10983 10983 10984 10984 10984 10984 10984 10983 10983 10983 10982 10982 10982 10982 10982 10983 10983 10983 10983
10977 10976 10975 10974 10974 10974 10973 10973 10972 10971 10972 10972 10972 10972 10972 10973 10973 10974 10973 10974 10973 10973 10973 10972 10972 10972 10972 10972 10973 10974 10974 10975 10975 10975 10975 10975 10975 10976 10976 10977 10977 10978 10978 10978 10978 10978 10978 10979 10979 10979 10980 10980 10980 10980 10981 10981 10981 10982 10982 10983 10983 10983 10983 10984 10984 10984 10984 10985 10985 10985 10985 10985 10985 10985 10985 10984 10984 10984 10984 10984 10984 10984 10984 10984 10984
10974 10974 10973 10973 10973 10972 10972 10971 10970 10970 10970 10970 10970 10970 10970 10970 10971 10972 10972 10972 10972 10972 10972 10972 10972 10971 10971 10970 10971 10972 10973 10974 10974 10974 10975 10975 10975 10976 10976 10977 10977 10978 10978 10978 10978 10978 10979 10979 10980 10980 10981 10981 10981 10981 10981 10982 10982 10982 10983 10983 10983 10984 10984 10985 10985 10985 10985 10986 10986 10986 10986 10986 10986 10986 10986 10986 10985 10985 10985 10985 10985 10985 10986 10986 10986
10970 10971 10971 10971 10970 10970 10971 10970 10969 10968 10967 10967 10968 10969 10968 10968 10969 10969 10970 10971 10971 10971 10971 10971 10971 10970 10970 10969 10969 10970 10971 10972 10973 10973 10973 10974 10975 10975 10975 10976 10977 10978 10978 10979 10979 10979 10979 10980 10980 10981 10981 10982 10982 10982 10982 10982 10983 10983 10983 10984 10984 10984 10985 10985 10986 10986 10986 10986 10987 10987 10987 10987 10987 10987 10987 10987 10987 10987 10987 10987 10987 10987 10987 10987 10986
10967 10968 10968 10968 10968 10968 10969 10968 10967 10966 10965 10965 10966 10967 10967 10967 10967 10967 10968 10968 10969 10969 10969 10969 10969 10969 10969 10969 10969 10969 10969 10969 10971 10972 10972 10973 10974 10974 10975 10975 10976 10977 10978 10978 10978 10979 10979 10980 10980 10981 10981 10982 10982 10982 10983 10983 10983 10983 10984 10984 10985 10985 10985 10986 10986 10986 10987 10987 10987 10988 10988 10988 10988 10988 10988 10988 10988 10988 10988 10988 10988 10988 10987 10987 10987
10964 10965 10965 10965 10965 10965 10965 10965 10965 10964 10963 10963 10964 10964 10965 10965 10965 10965 10965 10966 10966 10966 10966 10967 10967 10967 10967 10967 10968 10968 10968 10968 10968 10969 10971 10972 10972 10973 10974 10974 10975 10976 10977 10977 10978 10978 10978 10979 10979 10980 10981 10981 10982 10982 10983 10983 10983 10983 10984 10984 10985 10985 10986 10986 10986 10987 10987 10988 10988 10988 10989 10989 10989 10989 10989 10989 10989 10989 10989 10989 10988 10988 10988 10988 10988
10962 10962 10962 10962 10962 10962 10962 10962 10962 10961 10961 10961 10961 10961 10961 10962 10963 10963 10962 10963 10963 10964 10964 10964 10965 10965 10965 10966 10966 10966 10966 10966 10966 10967 10968 10969 10970 10971 10972 10973 10973 10974 10975 10976 10976 10977 10977 10978 10978 10979 10979 10980 10981 10982 10982 10983 10983 10983 10984 10984 10985 10985 10986 10986 10986 10987 10988 10988 10988 10989 10989 10989 10989 10989 10989 10989 10990 10990 10989 10989 10989 10989 10988 10988 10988
10958 10959 10959 10959 10959 10959 10959 10958 10958 10958 10958 10958 10959 10958 10958 10959 10961 10961 10961 10960 10960 10960 10961 10961 10962 10962 10963 10963 10964 10964 10965 10965 10965 10965 10966 10967 10968 10969 10970 10971 10972 10972 10973 10974 10974 10975 10976 10977 10977 10977 10978 10979 10980 10980 10981 10982 10983 10983 10984 10984 10985 10985 10986 10986 10986 10987 10988 10988 10989 10989 10989 10989 10989 10989 10989 10990 10990 10990 10990 10989 10989 10989 10988 10988 10988
10955 10955 10955 10955 10955 10955 10955 10955 10955 10955 10955 10955 10956 10956 10956 10956 10957 10958 10958 10958 10958 10958 10958 10959 10959 10960 10960 10960 10961 10962 10962 10963 10963 10963 10963 10964 10965 10967 10968 10969 10970 10971 10972 10972 10973 10974 10974 10975 10976 10976 10976 10977 10978 10979 10980 10981 10982 10983 10983 10984 10984 10985 10985 10986 10986 10987 10987 10988 10988 10989 10989 10989 10989 10989 10989 10990 10990 10990 10989 10989 10989 10988 10988 10988 10988
10951 10952 10952 10952 10952 10952 10952 10951 10951 10951 10951 10951 10952 10953 10953 10952 10953 10954 10955 10955 10955 10955 10955 10956 10957 10957 10957 10957 10958 10959 10960 10960 10961 10961 10961 10962 10963 10964 10965 10966 10968 10969 10969 10970 10971 10972 10973 10973 10974 10975 10975 10976 10976 10978 10979 10980 10981 10981 10982 10983 10984 10984 10985 10985 10986 10987 10987 10988 10988 10988 10989 10989 10989 10989 10989 10989 10989 10989 10989 10989 10988 10988 10988 10988 10988
10947 10947 10948 10948 10948 10948 10947 10947 10947 10947 10947 10947 10948 10949 10949 10949 10949 10950 10950 10951 10951 10952 10953 10953 10953 10953 10954 10955 10955 10956 10957 10958 10959 10959 10959 10960 10960 10961 10963 10964 10965 10966 10966 10967 10968 10969 10970 10971 10972 10973 10974 10974 10975 10976 10977 10978 10979 10980 10981 10982 10982 10983 10984 10984 10985 10986 10986 10987 10988 10988 10988 10989 10989 10989 10989 10989 10989 10989 10989 10988 10988 10988 10988 10987 10987
10943 10943 10943 10943 10943 10943 10943 10943 10942 10942 10942 10942 10942 10944 10944 10944 10945 10946 10945 10945 10947 10948 10949 10948 10947 10948 10950 10951 10951 10951 10953 10955 10956 10956 10957 10958 10958 10959 10960 10961 10962 10962 10963 10964 10966 10967 10968 10969 10970 10971 10972 10973 10973 10974 10975 10976 10977 10978 10979 10980 10981 10982 10982 10983 10984 10985 10986 10986 10987 10987 10988 10988 10988 10988 10988 10988 10989 10989 10988 10988 10988 10987 10987 10987 10987
10938 10938 10938 10938 10938 10938 10938 10938 10937 10937 10937 10937 10937 10937 10938 10939 10940 10941 10940 10940 10942 10944 10943 10942 10942 10944 10946 10947 10947 10947 10949 10951 10952 10953 10954 10955 10956 10956 10957 10957 10958 10959 10959 10961 10962 10964 10966 10967 10968 10969 10969 10970 10971 10972 10973 10974 10975 10976 10977 10978 10979 10980 10981 10982 10983 10984 10984 10985 10986 10986 10987 10987 10987 10987 10987 10987 10987 10987 10987 10987 10987 10987 10987 10986 10986
10934 10934 10934 10933 10933 10933 10933 10933 10932 10932 10931 10931 10931 10931 10932 10932 10933 10934 10935 10935 10936 10937 10938 10937 10938 10940 10942 10943 10943 10944 10945 10947 10949 10950 10951 10952 10952 10953 10953 10952 10953 10955 10956 10957 10959 10961 10963 10964 10965 10966 10967 10967 10968 10969 10970 10971 10972 10973 10974 10975 10977 10978 10979 10980 10981 10982 10983 10983 10984 10985 10985 10985 10985 10985 10985 10985 10985 10986 10986 10986 10986 10986 10986 10985 10985
10929 10928 10928 10928 10928 10927 10927 10927 10927 10926 10926 10925 10925 10925 10926 10926 10926 10926 10927 10929 10930 10931 10931 10931 10932 10935 10937 10938 10939 10940 10942 10944 10946 10948 10949 10949 10948 10948 10948 10948 10949 10950 10952 10953 10955 10957 10959 10960 10961 10963 10964 10964 10965 10966 10967 10969 10970 10971 10972 10973 10974 10975 10977 10978 10979 10980 10980 10981 10982 10983 10983 10983 10984 10984 10984 10984 10983 10984 10984 10984 10984 10984 10984 10984 10985
10924 10923 10923 10922 10922 10921 10921 10920 10920 10920 10919 10919 10918 10918 10919 10920 10920 10920 10920 10921 10922 10923 10925 10925 10926 10928 10931 10933 10934 10936 10939 10941 10942 10944 10946 10945 10943 10942 10942 10943 10944 10946 10947 10948 10950 10953 10955 10955 10957 10959 10960 10961 10961 10962 10963 10965 10966 10967 10969 10970 10971 10973 10974 10975 10976 10977 10978 10979 10980 10980 10981 10981 10981 10982 10982 10982 10982 10982 10982 10982 10982 10982 10983 10983 10983
10918 10918 10917 10917 10916 10916 10915 10914 10914 10913 10913 10912 10912 10911 10911 10912 10912 10913 10913 10914 10914 10915 10916 10918 10920 10922 10924 10926 10928 10931 10934 10936 10937 10938 10937 10936 10935 10936 10938 10938 10939 10941 10943 10944 10946 10948 10950 10951 10952 10955 10956 10957 10958 10959 10960 10961 10962 10964 10965 10967 10968 10970 10971 10972 10973 10974 10975 10976 10977 10977 10978 10979 10979 10979 10979 10979 10980 10980 10980 10980 10980 10981 10981 10981 10982
10913 10912 10912 10911 10910 10910 10909 10908 10908 10907 10906 10905 10905 10904 10904 10904 10904 10905 10905 10905 10906 10907 10907 10908 10912 10915 10916 10918 10920 10924 10927 10928 10929 10929 10928 10928 10931 10934 10935 10935 10936 10936 10937 10938 10940 10943 10945 10946 10947 10950 10952 10953 10954 10955 10956 10958 10958 10960 10961 10963 10965 10966 10967 10969 10970 10971 10972 10973 10974 10974 10975 10976 10976 10976 10977 10977 10977 10977 10978 10978 10978 10979 10979 10979 10980
10908 10907 10906 10906 10905 10904 10903 10902 10901 10900 10899 10898 10897 10897 10897 10897 10897 10897 10897 10897 10897 10898 10899 10899 10901 10905 10907 10909 10912 10915 10918 10918 10919 10920 10920 10923 10927 10928 10929 10931 10932 10932 10931 10931 10933 10936 10940 10942 10942 10944 10946 10948 10949 10951 10953 10954 10955 10956 10958 10959 10960 10962 10964 10965 10966 10967 10968 10969 10970 10971 10972 10972 10973 10973 10974 10974 10974 10975 10975 10975 10976 10976 10977 10977 10978
10902 10901 10900 10899 10898 10897 10897 10896 10894 10893 10892 10891 10890 10889 10889 10889 10889 10889 10889 10888 10888 10889 10890 10890 10891 10894 10896 10899 10902 10906 10908 10908 10910 10913 10914 10917 10919 10921 10922 10925 10927 10927 10927 10926 10926 10928 10933 10936 10937 10939 10941 10942 10943 10945 10947 10950 10951 10952 10954 10955 10956 10957 10959 10961 10962 10963 10964 10965 10966 10967 10968 10969 10969 10970 10970 10971 10971 10972 10972 10973 10973 10974 10974 10974 10975
10895 10894 10893 10892 10891 10890 10889 10888 10887 10886 10885 10884 10883 10882 10881 10881 10880 10880 10879 10879 10879 10879 10880 10880 10881 10883 10885 10887 10890 10894 10898 10899 10900 10903 10906 10909 10912 10914 10916 10918 10920 10922 10922 10922 10921 10922 10926 10930 10931 10932 10935 10937 10937 10939 10942 10944 10946 10948 10949 10951 10952 10953 10955 10956 10958 10959 10960 10961 10962 10963 10964 10965 10966 10966 10967 10967 10968 10969 10969 10970 10970 10971 10971 10972 10972
10888 10887 10885 10884 10883 10882 10881 10880 10879 10878 10877 10876 10875 10875 10874 10873 10871 10871 10870 10869 10868 10868 10869 10870 10871 10872 10874 10875 10878 10881 10885 10888 10890 10893 10896 10900 10903 10906 10908 10911 10913 10914 10916 10918 10918 10917 10919 10923 10925 10926 10928 10930 10931 10933 10935 10938 10940 10942 10944 10946 10947 10948 10950 10951 10953 10955 10956 10957 10959 10960 10961 10961 10962 10963 10963 10964 10964 10965 10966 10966 10967 10968 10968 10969 10969
10880 10879 10877 10875 10874 10873 10871 10870 10870 10869 10868 10867 10866 10866 10865 10864 10862 10861 10860 10859 10858 10857 10858 10859 10861 10862 10863 10864 10866 10869 10872 10875 10878 10882 10886 10890 10893 10896 10899 10902 10904 10906 10908 10912 10914 10912 10912 10915 10919 10920 10921 10924 10925 10927 10929 10932 10934 10935 10937 10940 10942 10943 10945 10946 10948 10950 10952 10953 10955 10956 10957 10958 10958 10959 10959 10960 10960 10961 10962 10963 10964 10964 10965 10966 10966
10871 10870 10868 10867 10865 10863 10862 10861 10860 10859 10858 10857 10856 10855 10854 10853 10852 10850 10849 10849 10848 10847 10847 10848 10849 10850 10851 10852 10855 10858 10860 10862 10866 10870 10874 10878 10882 10885 10888 10891 10895 10897 10900 10903 10906 10906 10906 10908 10911 10913 10915 10917 10919 10921 10923 10925 10928 10930 10931 10933 10935 10937 10939 10940 10942 10944 10947 10949 10950 10952 10953 10954 10954 10955 10956 10956 10957 10958 10959 10959 10960 10961 10962 10963 10963
10862 10860 10859 10858 10856 10854 10853 10851 10850 10849 10847 10846 10845 10844 10843 10842 10840 10838 10838 10837 10837 10836 10836 10836 10838 10839 10840 10840 10842 10845 10848 10850 10853 10857 10862 10866 10870 10874 10877 10880 10884 10887 10891 10894 10896 10898 10899 10901 10904 10907 10908 10909 10911 10914 10916 10919 10922 10924 10925 10927 10929 10931 10933 10935 10937 10939 10942 10944 10945 10947 10948 10949 10950 10951 10952 10953 10953 10954 10955 10956 10957 10958 10958 10959 10960
10853 10851 10849 10848 10846 10844 10843 10841 10839 10838 10836 10834 10833 10832 10831 10830 10828 10827 10825 10825 10825 10825 10825 10825 10826 10827 10828 10829 10831 10833 10836 10838 10841 10844 10848 10853 10857 10861 10865 10869 10873 10877 10881 10883 10887 10890 10892 10893 10896 10899 10901 10902 10904 10906 10909 10912 10915 10917 10919 10920 10922 10925 10927 10930 10932 10935 10937 10938 10939 10941 10943 10945 10946 10947 10948 10949 10950 10951 10952 10952 10953 10954 10954 10955 10956
10845 10842 10840 10838 10836 10834 10832 10830 10828 10826 10825 10823 10822 10821 10819 10818 10817 10815 10814 10813 10813 10813 10814 10814 10815 10816 10816 10818 10819 10821 10824 10826 10828 10831 10835 10839 10844 10848 10852 10857 10862 10866 10869 10873 10876 10880 10883 10885 10888 10890 10893 10896 10897 10898 10901 10905 10907 10909 10911 10914 10916 10919 10922 10924 10927 10930 10931 10932 10934 10936 10938 10941 10942 10943 10944 10945 10946 10947 10948 10948 10949 10950 10950 10951 10951
10835 10833 10830 10828 10825 10823 10821 10819 10817 10815 10813 10812 10811 10810 10809 10807 10806 10805 10804 10803 10802 10802 10802 10802 10803 10804 10805 10807 10808 10810 10812 10814 10816 10819 10822 10826 10830 10835 10839 10844 10849 10854 10858 10862 10866 10870 10873 10876 10878 10881 10885 10889 10890 10891 10894 10897 10899 10901 10904 10907 10910 10912 10915 10918 10921 10923 10925 10927 10929 10931 10933 10936 10938 10939 10939 10940 10941 10942 10943 10944 10945 10946 10946 10947 10948
10825 10823 10820 10818 10816 10813 10811 10808 10806 10804 10802 10801 10800 10799 10798 10797 10797 10795 10794 10793 10792 10791 10791 10791 10791 10793 10794 10796 10797 10798 10800 10802 10804 10807 10809 10813 10817 10821 10826 10831 10837 10842 10846 10850 10855 10859 10862 10866 10869 10871 10876 10880 10882 10884 10886 10888 10891 10894 10898 10901 10903 10906 10910 10913 10914 10917 10920 10922 10924 10926 10929 10931 10932 10933 10934 10935 10936 10938 10938 10940 10941 10941 10942 10943 10943
10815 10813 10810 10808 10806 10803 10801 10798 10796 10794 10792 10791 10790 10789 10789 10788 10787 10786 10785 10783 10782 10781 10781 10780 10781 10781 10783 10785 10786 10787 10788 10790 10793 10795 10797 10801 10805 10808 10813 10818 10824 10829 10835 10839 10844 10848 10852 10857 10859 10862 10867 10871 10872 10876 10879 10881 10884 10888 10891 10894 10897 10900 10904 10906 10908 10910 10914 10917 10919 10921 10923 10926 10927 10928 10929 10930 10932 10933 10934 10935 10936 10937 10938 10938 10939
10806 10803 10800 10798 10795 10793 10791 10789 10786 10784 10782 10781 10781 10780 10779 10778 10778 10777 10775 10773 10772 10771 10771 10771 10771 10771 10772 10773 10775 10776 10777 10778 10781 10784 10786 10788 10792 10796 10800 10805 10811 10817 10822 10828 10832 10837 10842 10847 10850 10854 10858 10860 10862 10866 10871 10873 10876 10881 10885 10889 10891 10894 10897 10900 10902 10904 10908 10912 10914 10916 10917 10919 10921 10921 10923 10925 10928 10929 10929 10930 10931 10932 10933 10934 10935
10796 10793 10790 10788 10786 10783 10782 10779 10776 10774 10772 10771 10771 10771 10770 10768 10768 10767 10765 10763 10762 10761 10761 10761 10761 10761 10762 10762 10764 10765 10766 10767 10769 10772 10774 10777 10780 10785 10789 10793 10799 10804 10810 10815 10820 10826 10831 10837 10841 10845 10847 10850 10853 10857 10861 10865 10870 10876 10880 10883 10885 10888 10892 10895 10896 10899 10903 10907 10909 10910 10911 10913 10915 10916 10918 10921 10924 10924 10925 10925 10926 10927 10928 10929 10930
10787 10784 10781 10779 10776 10774 10772 10770 10767 10764 10762 10762 10761 10761 10760 10758 10758 10757 10755 10754 10752 10751 10750 10750 10750 10751 10751 10752 10753 10754 10754 10756 10758 10760 10763 10766 10769 10773 10777 10781 10786 10791 10797 10802 10808 10813 10820 10826 10831 10835 10837 10841 10845 10848 10853 10859 10866 10870 10874 10876 10879 10882 10886 10889 10891 10893 10897 10900 10903 10905 10905 10907 10910 10911 10913 10917 10919 10919 10919 10920 10921 10923 10924 10925 10926
10777 10775 10772 10769 10767 10764 10763 10761 10758 10755 10752 10751 10751 10750 10749 10748 10748 10747 10746 10744 10743 10741 10740 10739 10739 10740 10741 10742 10742 10743 10743 10745 10747 10750 10752 10755 10758 10762 10766 10770 10773 10778 10784 10789 10795 10801 10808 10815 10821 10824 10826 10832 10838 10841 10846 10854 10860 10863 10866 10870 10874 10877 10880 10883 10885 10887 10889 10893 10897 10899 10899 10901 10905 10907 10908 10912 10914 10914 10914 10915 10917 10918 10919 10920 10921
10769 10766 10763 10760 10758 10755 10753 10751 10749 10746 10742 10740 10741 10740 10739 10738 10738 10737 10736 10734 10733 10732 10730 10729 10729 10730 10730 10731 10731 10732 10733 10734 10736 10739 10743 10745 10748 10751 10754 10758 10761 10766 10771 10776 10782 10789 10797 10804 10810 10813 10817 10824 10830 10833 10838 10846 10852 10855 10859 10864 10868 10870 10873 10876 10878 10879 10882 10885 10890 10893 10894 10895 10899 10902 10904 10906 10909 10909 10910 10911 10912 10914 10914 10915 10916
10761 10758 10755 10752 10749 10746 10744 10741 10739 10736 10732 10729 10729 10729 10728 10728 10727 10726 10725 10724 10723 10721 10720 10719 10720 10719 10719 10719 10720 10722 10723 10724 10726 10729 10732 10735 10737 10740 10742 10745 10749 10754 10758 10762 10769 10778 10785 10793 10799 10803 10808 10815 10822 10826 10831 10838 10844 10848 10853 10858 10860 10862 10866 10869 10872 10873 10875 10879 10883 10887 10889 10890 10893 10897 10900 10902 10904 10904 10905 10907 10908 10909 10909 10909 10910
10753 10749 10746 10743 10739 10736 10734 10731 10728 10726 10723 10719 10718 10719 10718 10717 10716 10716 10715 10714 10712 10710 10709 10709 10709 10709 10708 10709 10710 10711 10712 10713 10716 10719 10721 10724 10727 10729 10731 10734 10738 10742 10745 10749 10758 10767 10775 10782 10788 10793 10798 10805 10812 10817 10823 10830 10835 10840 10847 10851 10852 10856 10861 10865 10866 10867 10870 10874 10878 10882 10884 10884 10886 10892 10896 10898 10899 10900 10901 10903 10903 10903 10904 10904 10906
10746 10741 10737 10734 10729 10726 10724 10722 10719 10716 10714 10711 10708 10708 10707 10706 10705 10705 10705 10704 10702 10700 10699 10699 10699 10698 10698 10698 10699 10701 10702 10704 10706 10708 10710 10714 10717 10719 10721 10724 10728 10730 10733 10739 10749 10758 10764 10771 10777 10782 10788 10795 10802 10809 10815 10821 10826 10833 10840 10843 10845 10851 10856 10858 10859 10862 10866 10869 10871 10874 10878 10879 10882 10887 10892 10894 10895 10895 10896 10898 10898 10898 10899 10899 10901